Location: Delia
(51.6321°N, 112.3740°W)
Time: 19:41:11
(UTC+00:00)

Envisat - Pass Details

Date: 07 December 2021
Orbit: 764 x 766 km, 98.2° (Epoch: 26 January)

Event Time Altitude Azimuth Distance (km) Brightness Sun altitude
Rises 13:38:29 0° 9° (N) 3,248 6.2 -15.0°
Reaches altitude 10° 13:40:56 10° 1° (N) 2,317 5.3 -14.6°
Maximum altitude 13:45:34 36° 296° (WNW) 1,204 3.5 -14.0°
Drops below altitude 10° 13:50:10 10° 231° (SW) 2,302 5.2 -13.3°
Sets 13:52:36 0° 223° (SW) 3,223 6.0 -12.9°
